PROFILE

 METAR AND TAF INFORMATION
ADDS - METARS form results

(0428 UTC 26 January 2021)
http://aviationweather.gov/metar/data/
 
TNCC 260400Z 10011KT 9999 VCSH FEW018 26/21 Q1013 NOSIG
TAF TNCC 252315Z 2600/2624 09014KT 9999 FEW018 BKN030 PROB40 TEMPO 2604/2622 09020KT 6000 SHRA SCT015 BKN020 

 AIRPORT MAP

 RUNWAY INFORMATION
Runway 11 Runway length 11188 ft Runway width 197 ft
Runway elevation 25 ft Runway displaced threshold 2723 ft Runway heading 102
Runway 29 Runway length 11188 ft Runway width 197 ft
Runway elevation 29 ft Runway displaced threshold 0 ft Runway heading 282

 AIRPORT FREQUENCIES
Type APP Name APP Frequency 119.6 MHZ
Type MISC Name CATS SVC Frequency 131.8 MHZ
Type OPS Name DUTCH OPS Frequency 24.02 MHZ
Type POST Name IGUANA OPS Frequency 25 MHZ
Type TWR Name TWR Frequency 118.3 MHZ

 AIRPORT NEAR NAVIGATION AIDS
Type TACAN Name Hato Frequency 134100 KHZ
Type VOR-DME Name Curacao Frequency 116700 KHZ